KE4ODN Weather Reports


Display with metric or nautical units.
time (UTC)temp
F
wind
direction
speed
MPH
gust
MPH
rain 1hr
in
rain 24hr
in
rain mn
in
humidity
%
barometer
mb
20210926030503 63 0 0.0 0.0 0.00 0.00 0.00 91 1019.1
20210926030003 63 0 0.0 0.0 0.00 0.00 0.00 92 1019.0
20210926025503 63 0 0.0 0.0 0.00 0.00 0.00 92 1019.1
20210926025003 62 0 0.0 0.0 0.00 0.00 0.00 92 1019.0
20210926024503 62 0 0.0 0.0 0.00 0.00 0.00 92 1018.9
20210926024003 62 0 0.0 0.0 0.00 0.00 0.00 92 1018.9
20210926023503 62 0 0.0 0.0 0.00 0.00 0.00 92 1018.9
20210926023003 62 0 0.0 1.0 0.00 0.00 0.00 92 1018.8
20210926022503 63 0 0.0 1.0 0.00 0.00 0.00 92 1018.8
20210926022003 63 0 0.0 0.0 0.00 0.00 0.00 91 1018.7
20210926021504 63 0 0.0 0.0 0.00 0.00 0.00 91 1018.7
20210926021003 63 0 0.0 0.0 0.00 0.00 0.00 91 1018.7
20210926020503 63 0 0.0 0.0 0.00 0.00 0.00 91 1018.7
20210926020003 63 0 0.0 0.0 0.00 0.00 0.00 91 1018.6
20210926015503 64 0 0.0 0.0 0.00 0.00 0.00 91 1018.6
20210926015003 64 0 0.0 0.0 0.00 0.00 0.00 91 1018.6
20210926014503 64 0 0.0 0.0 0.00 0.00 0.00 90 1018.5
20210926014003 64 0 0.0 0.0 0.00 0.00 0.00 90 1018.4
20210926013503 64 0 0.0 0.0 0.00 0.00 0.00 90 1018.4
20210926013003 64 0 0.0 0.0 0.00 0.00 0.00 90 1018.3
20210926012503 64 0 0.0 0.0 0.00 0.00 0.00 90 1018.3
20210926012003 65 0 0.0 0.0 0.00 0.00 0.00 90 1018.3
20210926011503 65 0 0.0 0.0 0.00 0.00 0.00 90 1018.2
20210926011003 65 0 0.0 0.0 0.00 0.00 0.00 89 1018.1
20210926010503 65 0 0.0 0.0 0.00 0.00 0.00 89 1018.1
20210926010003 66 0 0.0 0.0 0.00 0.00 0.00 89 1018.1
20210926005503 66 0 0.0 0.0 0.00 0.00 0.00 88 1018.1
20210926005003 66 0 0.0 0.0 0.00 0.00 0.00 88 1018.0
20210926004503 66 0 0.0 0.0 0.00 0.00 0.00 88 1018.0
20210926004003 66 0 0.0 0.0 0.00 0.00 0.00 87 1018.0
20210926003503 67 0 0.0 0.0 0.00 0.00 0.00 87 1018.0
20210926003003 67 0 0.0 0.0 0.00 0.00 0.00 87 1017.9
20210926002503 67 0 0.0 0.0 0.00 0.00 0.00 86 1018.0
20210926002003 68 0 0.0 0.0 0.00 0.00 0.00 86 1018.0
20210926001503 68 0 0.0 0.0 0.00 0.00 0.00 85 1017.9
20210926001003 68 0 0.0 0.0 0.00 0.00 0.00 84 1017.9
20210926000503 68 0 0.0 0.0 0.00 0.00 0.00 84 1017.8
20210926000003 69 0 0.0 0.0 0.00 0.00 0.00 83 1017.9
20210925235503 69 0 0.0 0.0 0.00 0.00 0.00 83 1017.9
20210925235003 69 0 0.0 0.0 0.00 0.00 0.00 82 1017.9
20210925234504 70 0 0.0 0.0 0.00 0.00 0.00 82 1017.9
20210925234003 70 0 0.0 0.0 0.00 0.00 0.00 80 1017.9
20210925233503 70 0 0.0 0.0 0.00 0.00 0.00 80 1018.0
20210925233003 71 0 0.0 0.0 0.00 0.00 0.00 79 1017.9
20210925232503 71 0 0.0 0.0 0.00 0.00 0.00 79 1017.9
20210925232003 72 0 0.0 0.0 0.00 0.00 0.00 78 1017.9
20210925231503 72 0 0.0 0.0 0.00 0.00 0.00 76 1017.9
20210925231003 72 0 0.0 0.0 0.00 0.00 0.00 75 1017.9
20210925230503 73 0 0.0 0.0 0.00 0.00 0.00 73 1017.9
20210925230003 73 0 0.0 0.0 0.00 0.00 0.00 70 1017.8
20210925225503 73 0 0.0 0.0 0.00 0.00 0.00 69 1017.8
20210925225003 74 0 0.0 1.0 0.00 0.00 0.00 68 1017.7
20210925224503 74 0 0.0 1.0 0.00 0.00 0.00 68 1017.7
20210925224003 74 0 0.0 0.0 0.00 0.00 0.00 67 1017.7
20210925223503 74 0 0.0 0.0 0.00 0.00 0.00 66 1017.6
20210925223003 74 0 0.0 1.0 0.00 0.00 0.00 66 1017.7
20210925222503 75 0 0.0 1.0 0.00 0.00 0.00 65 1017.7
20210925222003 75 0 0.0 1.0 0.00 0.00 0.00 65 1017.7
20210925221503 75 0 0.0 1.0 0.00 0.00 0.00 65 1017.6
20210925221003 75 0 0.0 1.0 0.00 0.00 0.00 65 1017.5
20210925220503 75 0 0.0 1.0 0.00 0.00 0.00 64 1017.5
20210925220003 75 0 0.0 1.0 0.00 0.00 0.00 64 1017.4
20210925215503 75 0 0.0 1.0 0.00 0.00 0.00 65 1017.4
20210925215003 75 0 0.0 1.0 0.00 0.00 0.00 65 1017.4
20210925214503 75 0 0.0 1.0 0.00 0.00 0.00 60 1017.4
20210925214003 75 0 0.0 1.0 0.00 0.00 0.00 65 1017.5
20210925213503 75 0 0.0 2.0 0.00 0.00 0.00 65 1017.5
20210925213003 75 322 0.0 2.0 0.00 0.00 0.00 63 1017.4
20210925212503 75 322 0.0 2.0 0.00 0.00 0.00 62 1017.4
20210925212003 75 322 1.0 1.0 0.00 0.00 0.00 61 1017.5
20210925211503 75 326 0.0 2.0 0.00 0.00 0.00 56 1017.6
20210925211003 75 0 0.0 2.0 0.00 0.00 0.00 59 1017.5
20210925210503 75 340 0.0 1.0 0.00 0.00 0.00 55 1017.5
20210925210003 75 338 0.0 2.0 0.00 0.00 0.00 62 1017.6
20210925205503 76 63 1.0 2.0 0.00 0.00 0.00 59 1017.6
20210925205003 76 338 1.0 3.0 0.00 0.00 0.00 58 1017.6
20210925204503 76 304 1.0 3.0 0.00 0.00 0.00 56 1017.6
20210925204003 76 299 1.0 3.0 0.00 0.00 0.00 58 1017.7
20210925203503 76 331 1.0 3.0 0.00 0.00 0.00 53 1017.7
20210925203003 76 8 1.0 2.0 0.00 0.00 0.00 55 1017.8
20210925202503 77 354 1.0 4.0 0.00 0.00 0.00 56 1017.9
20210925202003 76 342 0.0 4.0 0.00 0.00 0.00 58 1018.0
20210925201503 76 344 0.0 2.0 0.00 0.00 0.00 58 1018.1
20210925201003 76 342 1.0 2.0 0.00 0.00 0.00 58 1018.1
20210925200503 76 350 1.0 2.0 0.00 0.00 0.00 56 1018.1
20210925200003 77 332 1.0 2.0 0.00 0.00 0.00 54 1018.2
20210925195503 76 293 2.0 3.0 0.00 0.00 0.00 59 1018.3
20210925195003 76 293 2.0 3.0 0.00 0.00 0.00 57 1018.3
20210925194503 76 312 1.0 4.0 0.00 0.00 0.00 57 1018.4
20210925194003 77 334 1.0 4.0 0.00 0.00 0.00 61 1018.4
20210925193503 77 356 1.0 2.0 0.00 0.00 0.00 59 1018.4
20210925193003 76 352 1.0 3.0 0.00 0.00 0.00 61 1018.4
20210925192503 76 322 1.0 4.0 0.00 0.00 0.00 59 1018.4
20210925192003 76 305 1.0 5.0 0.00 0.00 0.00 58 1018.4
20210925191503 76 293 1.0 5.0 0.00 0.00 0.00 61 1018.4
20210925191003 76 252 1.0 3.0 0.00 0.00 0.00 59 1018.5
20210925190503 76 265 1.0 3.0 0.00 0.00 0.00 57 1018.5
20210925190003 76 323 1.0 3.0 0.00 0.00 0.00 61 1018.6
20210925185503 76 346 1.0 3.0 0.00 0.00 0.00 57 1018.8
20210925185003 76 20 1.0 3.0 0.00 0.00 0.00 61 1018.8
20210925184503 76 40 1.0 4.0 0.00 0.00 0.00 58 1018.9
20210925184003 76 21 1.0 4.0 0.00 0.00 0.00 63 1019.0
20210925183503 77 2 1.0 3.0 0.00 0.00 0.00 60 1019.1
20210925183003 76 325 1.0 4.0 0.00 0.00 0.00 58 1019.1
20210925182503 77 333 1.0 4.0 0.00 0.00 0.00 60 1019.2
20210925182003 76 41 1.0 3.0 0.00 0.00 0.00 63 1019.3
20210925181503 76 273 1.0 3.0 0.00 0.00 0.00 60 1019.3
20210925181003 76 301 1.0 5.0 0.00 0.00 0.00 60 1019.4
20210925180503 76 343 1.0 5.0 0.00 0.00 0.00 63 1019.5
20210925180003 76 303 1.0 4.0 0.00 0.00 0.00 63 1019.6
20210925175503 76 318 1.0 4.0 0.00 0.00 0.00 64 1019.5
20210925175003 76 5 1.0 4.0 0.00 0.00 0.00 59 1019.6
20210925174503 76 10 1.0 4.0 0.00 0.00 0.00 61 1019.7
20210925174003 76 11 1.0 4.0 0.00 0.00 0.00 65 1019.7
20210925173503 75 41 1.0 3.0 0.00 0.00 0.00 64 1019.7
20210925173003 74 39 1.0 5.0 0.00 0.00 0.00 63 1019.8
20210925172503 75 28 1.0 5.0 0.00 0.00 0.00 59 1019.8
20210925172003 75 24 1.0 5.0 0.00 0.00 0.00 63 1019.8
20210925171503 75 16 1.0 5.0 0.00 0.00 0.00 63 1019.9
20210925171003 74 357 1.0 4.0 0.00 0.00 0.00 65 1019.9
20210925170503 75 3 1.0 3.0 0.00 0.00 0.00 64 1019.9
20210925170003 75 21 1.0 3.0 0.00 0.00 0.00 67 1020.0
20210925165503 74 359 1.0 4.0 0.00 0.00 0.00 63 1020.0
20210925165003 74 356 1.0 4.0 0.00 0.00 0.00 65 1020.1
20210925164503 74 12 1.0 3.0 0.00 0.00 0.00 67 1020.1
20210925164003 74 356 1.0 3.0 0.00 0.00 0.00 65 1020.1
20210925163503 74 324 1.0 3.0 0.00 0.00 0.00 65 1020.2
20210925163003 74 293 1.0 4.0 0.00 0.00 0.00 72 1020.3
20210925162503 73 349 1.0 4.0 0.00 0.00 0.00 71 1020.2
20210925162003 73 343 1.0 3.0 0.00 0.00 0.00 68 1020.2
20210925161503 73 277 1.0 2.0 0.00 0.00 0.00 71 1020.3
20210925161003 73 290 1.0 3.0 0.00 0.00 0.00 70 1020.3
20210925160503 73 315 1.0 5.0 0.00 0.00 0.00 72 1020.3
20210925160003 73 319 1.0 5.0 0.00 0.00 0.00 79 1020.3
20210925155503 72 338 1.0 2.0 0.00 0.00 0.00 75 1020.2
20210925155003 71 327 0.0 2.0 0.00 0.00 0.00 72 1020.3
20210925154503 71 0 0.0 2.0 0.00 0.00 0.00 80 1020.3
20210925154003 71 267 0.0 2.0 0.00 0.00 0.00 75 1020.2
20210925153503 71 141 0.0 1.0 0.00 0.00 0.00 79 1020.1
20210925153003 70 114 1.0 3.0 0.00 0.00 0.00 78 1020.2
20210925152503 70 8 0.0 3.0 0.00 0.00 0.00 80 1020.2
20210925152003 68 0 0.0 2.0 0.00 0.00 0.00 83 1020.2
20210925151503 68 0 0.0 2.0 0.00 0.00 0.00 86 1020.2
20210925151003 67 0 0.0 1.0 0.00 0.00 0.00 83 1020.2
20210925150503 68 0 0.0 1.0 0.00 0.00 0.00 84 1020.2
20210925150003 67 0 0.0 2.0 0.00 0.00 0.00 85 1020.2
20210925145503 66 0 0.0 2.0 0.00 0.00 0.00 89 1020.3
20210925145003 66 0 0.0 2.0 0.00 0.00 0.00 89 1020.2
20210925144503 64 0 0.0 2.0 0.00 0.00 0.00 92 1020.2
20210925144003 63 0 0.0 2.0 0.00 0.00 0.00 94 1020.2
20210925143503 61 0 0.0 1.0 0.00 0.00 0.00 96 1020.2
20210925143003 58 0 0.0 1.0 0.00 0.00 0.00 96 1020.3
20210925142503 58 0 0.0 1.0 0.00 0.00 0.00 96 1020.3
20210925142003 58 0 0.0 0.0 0.00 0.00 0.00 96 1020.3
20210925141503 57 0 0.0 0.0 0.00 0.00 0.00 96 1020.3
20210925141003 56 0 0.0 0.0 0.00 0.00 0.00 96 1020.4
20210925140503 56 0 0.0 1.0 0.00 0.00 0.00 96 1020.4
20210925140004 56 0 0.0 1.0 0.00 0.00 0.00 96 1020.4
20210925135503 55 0 0.0 1.0 0.00 0.00 0.00 96 1020.5
20210925135003 55 0 0.0 1.0 0.00 0.00 0.00 96 1020.5
20210925134503 54 0 0.0 0.0 0.00 0.00 0.00 96 1020.5
20210925134003 54 0 0.0 0.0 0.00 0.00 0.00 96 1020.6
20210925133503 54 0 0.0 0.0 0.00 0.00 0.00 95 1020.5
20210925133003 54 0 0.0 0.0 0.00 0.00 0.00 95 1020.4
20210925132503 54 0 0.0 1.0 0.00 0.00 0.00 95 1020.4
20210925132003 53 0 0.0 1.0 0.00 0.00 0.00 95 1020.3
20210925131503 53 0 0.0 0.0 0.00 0.00 0.00 95 1020.3
20210925131003 53 0 0.0 1.0 0.00 0.00 0.00 95 1020.3
20210925130503 53 0 0.0 1.0 0.00 0.00 0.00 95 1020.4
20210925130003 53 0 0.0 0.0 0.00 0.00 0.00 95 1020.4
20210925125503 53 0 0.0 1.0 0.00 0.00 0.00 95 1020.5
20210925125003 53 0 0.0 1.0 0.00 0.00 0.00 95 1020.4
20210925124503 53 0 0.0 0.0 0.00 0.00 0.00 95 1020.2
20210925124003 52 0 0.0 1.0 0.00 0.00 0.00 95 1020.1
20210925123503 52 0 0.0 1.0 0.00 0.00 0.00 95 1020.3
20210925123003 52 0 0.0 0.0 0.00 0.00 0.00 95 1020.2
20210925122503 52 0 0.0 0.0 0.00 0.00 0.00 95 1020.1
20210925122003 52 0 0.0 0.0 0.00 0.00 0.00 95 1020.1
20210925121503 52 0 0.0 0.0 0.00 0.00 0.00 95 1020.1
20210925121003 52 0 0.0 0.0 0.00 0.00 0.00 95 1020.1
20210925120503 52 0 0.0 0.0 0.00 0.00 0.00 95 1020.2
20210925120003 52 0 0.0 0.0 0.00 0.00 0.00 95 1020.3
20210925115503 52 0 0.0 0.0 0.00 0.00 0.00 95 1020.2
20210925115003 52 0 0.0 0.0 0.00 0.00 0.00 94 1020.2
20210925114503 52 0 0.0 0.0 0.00 0.00 0.00 94 1020.0
20210925114003 52 0 0.0 0.0 0.00 0.00 0.00 94 1019.9
20210925113503 52 0 0.0 0.0 0.00 0.00 0.00 94 1019.8
20210925113004 52 0 0.0 0.0 0.00 0.00 0.00 94 1019.8
20210925112503 52 0 0.0 0.0 0.00 0.00 0.00 95 1019.7
20210925112003 52 0 0.0 0.0 0.00 0.00 0.00 95 1019.7
20210925111503 52 0 0.0 0.0 0.00 0.00 0.00 95 1019.6
20210925111003 52 0 0.0 0.0 0.00 0.00 0.00 95 1019.5
20210925110503 52 0 0.0 0.0 0.00 0.00 0.00 95 1019.4
20210925110003 52 0 0.0 0.0 0.00 0.00 0.00 95 1019.4
20210925105503 52 0 0.0 0.0 0.00 0.00 0.00 95 1019.3
20210925105003 52 0 0.0 0.0 0.00 0.00 0.00 95 1019.3
20210925104503 52 0 0.0 0.0 0.00 0.00 0.00 94 1019.2
20210925104003 52 0 0.0 0.0 0.00 0.00 0.00 94 1019.3
20210925103503 52 0 0.0 0.0 0.00 0.00 0.00 94 1019.2
20210925103003 52 0 0.0 0.0 0.00 0.00 0.00 94 1019.1
20210925102503 52 0 0.0 0.0 0.00 0.00 0.00 94 1018.9
20210925102003 52 0 0.0 0.0 0.00 0.00 0.00 94 1018.8
20210925101503 52 0 0.0 0.0 0.00 0.00 0.00 94 1018.8
20210925101003 52 0 0.0 0.0 0.00 0.00 0.00 94 1018.7
20210925100503 52 0 0.0 0.0 0.00 0.00 0.00 94 1018.7
20210925100003 52 0 0.0 0.0 0.00 0.00 0.00 94 1018.7
20210925095503 52 0 0.0 0.0 0.00 0.00 0.00 94 1018.6
20210925095003 52 0 0.0 0.0 0.00 0.00 0.00 94 1018.4
20210925094503 52 0 0.0 0.0 0.00 0.00 0.00 94 1018.5
20210925094003 52 0 0.0 0.0 0.00 0.00 0.00 94 1018.6
20210925093503 52 0 0.0 0.0 0.00 0.00 0.00 94 1018.6
20210925093003 52 0 0.0 0.0 0.00 0.00 0.00 94 1018.6
20210925092503 53 0 0.0 0.0 0.00 0.00 0.00 94 1018.7
20210925092003 53 0 0.0 0.0 0.00 0.00 0.00 94 1018.6
20210925091503 53 0 0.0 0.0 0.00 0.00 0.00 94 1018.7
20210925091003 53 0 0.0 0.0 0.00 0.00 0.00 94 1018.8
20210925090503 53 0 0.0 0.0 0.00 0.00 0.00 94 1018.8
20210925090003 53 0 0.0 0.0 0.00 0.00 0.00 94 1018.7
20210925085503 53 0 0.0 0.0 0.00 0.00 0.00 94 1018.6
20210925085003 53 0 0.0 0.0 0.00 0.00 0.00 94 1018.6
20210925084503 53 0 0.0 0.0 0.00 0.00 0.00 94 1018.7
20210925084003 53 0 0.0 0.0 0.00 0.00 0.00 94 1018.7
20210925083503 53 0 0.0 0.0 0.00 0.00 0.00 94 1018.7
20210925083003 53 0 0.0 0.0 0.00 0.00 0.00 94 1018.7
20210925082503 53 0 0.0 0.0 0.00 0.00 0.00 94 1018.8
20210925082003 53 0 0.0 0.0 0.00 0.00 0.00 94 1018.8
20210925081503 53 0 0.0 0.0 0.00 0.00 0.00 94 1018.9
20210925081003 53 0 0.0 0.0 0.00 0.00 0.00 94 1018.9
20210925080503 53 0 0.0 0.0 0.00 0.00 0.00 94 1018.9
20210925080003 53 0 0.0 0.0 0.00 0.00 0.00 94 1018.9
20210925075503 53 0 0.0 0.0 0.00 0.00 0.00 94 1019.0
20210925075003 54 0 0.0 0.0 0.00 0.00 0.00 94 1019.0
20210925074503 54 0 0.0 0.0 0.00 0.00 0.00 94 1019.0
20210925074003 54 0 0.0 0.0 0.00 0.00 0.00 94 1019.1
20210925073503 54 0 0.0 0.0 0.00 0.00 0.00 94 1019.1
20210925073004 54 0 0.0 0.0 0.00 0.00 0.00 94 1019.0
20210925072503 54 0 0.0 0.0 0.00 0.00 0.00 94 1019.1
20210925072003 54 0 0.0 0.0 0.00 0.00 0.00 94 1019.1
20210925071503 54 0 0.0 0.0 0.00 0.00 0.00 94 1019.1
20210925071003 54 0 0.0 0.0 0.00 0.00 0.00 94 1018.9
20210925070503 54 0 0.0 0.0 0.00 0.00 0.00 94 1019.0
20210925070003 54 0 0.0 0.0 0.00 0.00 0.00 94 1019.0
20210925065503 54 0 0.0 0.0 0.00 0.00 0.00 94 1019.0
20210925065003 54 0 0.0 0.0 0.00 0.00 0.00 94 1019.0
20210925064503 54 0 0.0 0.0 0.00 0.00 0.00 94 1018.9
20210925064003 54 0 0.0 0.0 0.00 0.00 0.00 94 1019.0
20210925063503 54 0 0.0 0.0 0.00 0.00 0.00 94 1019.0
20210925063003 54 0 0.0 0.0 0.00 0.00 0.00 94 1018.9
20210925062503 54 0 0.0 0.0 0.00 0.00 0.00 94 1018.8
20210925062003 55 0 0.0 0.0 0.00 0.00 0.00 93 1019.0
20210925061503 55 0 0.0 0.0 0.00 0.00 0.00 94 1019.0
20210925061003 55 0 0.0 0.0 0.00 0.00 0.00 94 1018.9
20210925060503 55 0 0.0 0.0 0.00 0.00 0.00 94 1019.0
20210925060004 55 0 0.0 0.0 0.00 0.00 0.00 94 1019.0
20210925055503 55 0 0.0 0.0 0.00 0.00 0.00 93 1019.0
20210925055003 55 0 0.0 0.0 0.00 0.00 0.00 93 1019.0
20210925054503 55 0 0.0 0.0 0.00 0.00 0.00 93 1018.9
20210925054003 55 0 0.0 0.0 0.00 0.00 0.00 93 1018.9
20210925053503 55 0 0.0 0.0 0.00 0.00 0.00 93 1018.8
20210925053003 55 0 0.0 0.0 0.00 0.00 0.00 93 1018.8
20210925052503 56 0 0.0 0.0 0.00 0.00 0.00 93 1018.8
20210925052003 56 0 0.0 0.0 0.00 0.00 0.00 93 1018.7
20210925051503 56 0 0.0 0.0 0.00 0.00 0.00 93 1018.7
20210925051003 56 0 0.0 0.0 0.00 0.00 0.00 93 1018.6
20210925050503 56 0 0.0 0.0 0.00 0.00 0.00 93 1018.8
20210925050004 56 0 0.0 0.0 0.00 0.00 0.00 93 1018.7
20210925045503 56 0 0.0 0.0 0.00 0.00 0.00 93 1018.8
20210925045003 56 0 0.0 1.0 0.00 0.00 0.00 93 1018.8
20210925044503 56 0 0.0 1.0 0.00 0.00 0.00 93 1018.8
20210925044003 56 0 0.0 0.0 0.00 0.00 0.00 93 1018.8
20210925043503 56 0 0.0 0.0 0.00 0.00 0.00 93 1018.8
20210925043004 56 0 0.0 0.0 0.00 0.00 0.00 93 1018.6
20210925042503 56 0 0.0 0.0 0.00 0.00 0.00 93 1018.7
20210925042003 56 0 0.0 0.0 0.00 0.00 0.00 93 1018.7
20210925041503 57 0 0.0 0.0 0.00 0.00 0.00 92 1018.7
20210925041003 57 0 0.0 0.0 0.00 0.00 0.00 92 1018.8
20210925040503 57 0 0.0 0.0 0.00 0.00 0.00 93 1018.6
20210925040003 57 0 0.0 0.0 0.00 0.00 0.00 93 1018.6
20210925035503 57 0 0.0 0.0 0.00 0.00 0.00 92 1018.6
20210925035003 57 0 0.0 0.0 0.00 0.00 0.00 92 1018.6
20210925034503 58 0 0.0 0.0 0.00 0.00 0.00 92 1018.6
20210925034003 58 0 0.0 0.0 0.00 0.00 0.00 92 1018.5
20210925033503 58 0 0.0 0.0 0.00 0.00 0.00 92 1018.5
20210925033003 58 0 0.0 0.0 0.00 0.00 0.00 92 1018.5
20210925032503 58 0 0.0 0.0 0.00 0.00 0.00 92 1018.4
20210925032003 58 0 0.0 0.0 0.00 0.00 0.00 92 1018.4
20210925031503 58 0 0.0 0.0 0.00 0.00 0.00 92 1018.4
20210925031003 58 0 0.0 0.0 0.00 0.00 0.00 92 1018.2